Sand Point, AK

5:28 PM AKDT on April 19, 2018 (GMT -0800)
Sand Point

Weather History for PASD - January, 2013

Change the Weather History Date:

Monday, January 28, 2013

  Actual Average Record
Temperature  
Mean Temperature 34 °F -  
Max Temperature 41 °F 32 °F 44 °F (2015)
Min Temperature 26 °F 26 °F -12 °F (1989)
Degree Days  
Heating Degree Days 32    
Moisture  
Dew Point 34 °F    
Average Humidity 97    
Maximum Humidity 100    
Minimum Humidity 93    
Precipitation  
Precipitation 0.00 in - - ()
Sea Level Pressure  
Sea Level Pressure 29.20 in    
Wind  
Wind Speed 15 mph (NE)    
Max Wind Speed 21 mph    
Max Gust Speed 45 mph    
Visibility 3 miles    
Events      
Averages and records for this station are not official NWS values.
T = Trace of Precipitation, MM = Missing Value Source: NWS Daily Summary

Daily Weather History Graph

Daily Weather History Graph

Search for Another Location

Airport or City:

Trip Planner

Search our weather history database for the weather conditions in past years. The results will help you decide how hot, cold, wet, or windy it might be!

Date:

Astronomy

Jan. 28, 2013 Rise Set
Actual Time 9:40 AM AKST 6:10 PM AKST
Civil Twilight 8:59 AM AKST 6:51 PM AKST
Nautical Twilight 8:14 AM AKST 7:36 PM AKST
Astronomical Twilight 7:31 AM AKST 8:19 PM AKST
Moon 8:49 PM AKST (1/28) 9:44 AM AKST (1/28)
Length of Visible Light 9h 52m
Length of Day
8h 30m
Full, 97% of the Moon is Illuminated
Jan 28
Full
Feb 3
Last Quarter
Feb 9
New
Feb 17
First Quarter
Feb 25
Full

Hourly Weather History & Observations

Time (AKST) Temp. Windchill Dew Point Humidity Pressure Visibility Wind Dir Wind Speed Gust Speed Precip Events Conditions
12:16 AM 26.6 °F 14.3 °F 24.8 °F 93% 29.66 in 2.0 mi NE 16.1 mph 27.6 mph N/A   Overcast
12:36 AM 26.6 °F 13.1 °F 24.8 °F 93% 29.65 in 1.5 mi NNE 19.6 mph 26.5 mph N/A   Overcast
12:56 AM 26.6 °F 14.3 °F 26.6 °F 100% 29.65 in 1.5 mi NNE 16.1 mph 28.8 mph N/A   Overcast
1:16 AM 26.6 °F 13.4 °F 26.6 °F 100% 29.63 in 1.2 mi NE 18.4 mph 34.5 mph N/A   Overcast
1:36 AM 26.6 °F 14.3 °F 26.6 °F 100% 29.62 in 1.5 mi NE 16.1 mph 29.9 mph N/A   Overcast
1:56 AM 26.6 °F 14.7 °F 26.6 °F 100% 29.59 in 1.5 mi NE 15.0 mph 33.4 mph N/A   Overcast
2:16 AM 28.4 °F 16.6 °F 26.6 °F 93% 29.57 in 1.2 mi NE 16.1 mph 39.1 mph N/A   Overcast
2:36 AM 28.4 °F 16.6 °F 26.6 °F 93% 29.54 in 1.5 mi NNE 16.1 mph 27.6 mph N/A   Overcast
2:56 AM 28.4 °F 15.4 °F 28.4 °F 100% 29.52 in 1.5 mi NNE 19.6 mph 33.4 mph N/A   Overcast
3:16 AM 28.4 °F 15.4 °F 26.6 °F 93% 29.50 in 1.5 mi NNE 19.6 mph 33.4 mph N/A   Overcast
3:36 AM 30.2 °F 19.3 °F 28.4 °F 93% 29.49 in 1.2 mi NE 15.0 mph 32.2 mph N/A   Overcast
3:56 AM 30.2 °F 19.8 °F 30.2 °F 100% 29.47 in 1.5 mi NE 13.8 mph 29.9 mph N/A   Overcast
4:16 AM 32.0 °F 20.1 °F 30.2 °F 93% 29.44 in 1.5 mi NNE 19.6 mph 32.2 mph N/A   Overcast
4:36 AM 33.8 °F 24.8 °F 32.0 °F 93% 29.42 in 2.5 mi NE 12.7 mph 27.6 mph N/A   Overcast
4:56 AM 33.8 °F 25.8 °F 33.8 °F 100% 29.42 in 3.0 mi ENE 10.4 mph 21.9 mph N/A   Overcast
5:16 AM 35.6 °F 27.1 °F 33.8 °F 93% 29.39 in 2.0 mi NE 12.7 mph 27.6 mph N/A   Overcast
5:36 AM 33.8 °F 22.8 °F 32.0 °F 93% 29.35 in 2.5 mi NNE 18.4 mph 29.9 mph N/A   Overcast
5:56 AM 33.8 °F 23.5 °F 33.8 °F 100% 29.32 in 2.5 mi NE 16.1 mph 39.1 mph N/A   Overcast
6:16 AM 33.8 °F 22.5 °F 33.8 °F 100% 29.32 in 2.0 mi NE 19.6 mph 39.1 mph N/A   Overcast
6:36 AM 33.8 °F 22.8 °F 33.8 °F 100% 29.31 in 2.0 mi NE 18.4 mph 35.7 mph N/A   Overcast
6:56 AM 33.8 °F 22.5 °F 33.8 °F 100% 29.30 in 2.5 mi NE 19.6 mph 35.7 mph N/A   Overcast
7:16 AM 33.8 °F 22.5 °F 33.8 °F 100% 29.29 in 2.5 mi NE 19.6 mph 32.2 mph N/A   Overcast
7:36 AM 33.8 °F 22.8 °F 33.8 °F 100% 29.28 in 2.5 mi NE 18.4 mph 35.7 mph N/A   Overcast
7:56 AM 33.8 °F 23.2 °F 33.8 °F 100% 29.27 in 3.0 mi NE 17.3 mph 32.2 mph N/A   Overcast
8:16 AM 33.8 °F 23.2 °F 32.0 °F 93% 29.27 in 4.0 mi NE 17.3 mph 44.9 mph N/A   Overcast
8:36 AM 33.8 °F 23.9 °F 33.8 °F 100% 29.25 in 2.5 mi NNE 15.0 mph 33.4 mph N/A   Overcast
8:56 AM 33.8 °F 22.5 °F 32.0 °F 93% 29.22 in 2.0 mi NNE 19.6 mph 38.0 mph N/A   Overcast
9:16 AM 33.8 °F 22.5 °F 32.0 °F 93% 29.21 in 2.0 mi NE 19.6 mph 31.1 mph N/A   Overcast
9:36 AM 33.8 °F 23.2 °F 32.0 °F 93% 29.20 in 2.5 mi NE 17.3 mph 34.5 mph N/A   Overcast
9:56 AM 33.8 °F 23.2 °F 32.0 °F 93% 29.21 in 3.0 mi NE 17.3 mph 35.7 mph N/A   Overcast
10:16 AM 33.8 °F 22.8 °F 32.0 °F 93% 29.19 in 2.0 mi NE 18.4 mph 34.5 mph N/A   Overcast
10:36 AM 35.6 °F 25.9 °F 33.8 °F 93% 29.20 in 2.0 mi NE 16.1 mph 31.1 mph N/A   Overcast
10:56 AM 35.6 °F 26.6 °F 33.8 °F 93% 29.19 in 3.0 mi NE 13.8 mph 34.5 mph N/A   Overcast
11:16 AM 35.6 °F 25.5 °F 33.8 °F 93% 29.17 in 3.0 mi NE 17.3 mph 29.9 mph N/A   Overcast
11:36 AM 35.6 °F 24.5 °F 35.6 °F 100% 29.18 in 2.0 mi NE 20.7 mph 34.5 mph N/A   Overcast
11:56 AM 35.6 °F 25.9 °F 35.6 °F 100% 29.17 in 1.8 mi NE 16.1 mph 38.0 mph N/A   Overcast
12:16 PM 35.6 °F 25.2 °F 35.6 °F 100% 29.13 in 1.5 mi NE 18.4 mph 36.8 mph N/A   Overcast
12:36 PM 35.6 °F 27.1 °F 35.6 °F 100% 29.15 in 3.0 mi NE 12.7 mph 29.9 mph N/A   Overcast
12:56 PM 35.6 °F 26.6 °F 35.6 °F 100% 29.13 in 3.0 mi NE 13.8 mph 26.5 mph N/A   Overcast
1:16 PM 35.6 °F 25.2 °F 35.6 °F 100% 29.12 in 3.0 mi NE 18.4 mph 29.9 mph N/A   Overcast
1:36 PM 35.6 °F 25.2 °F 35.6 °F 100% 29.10 in 4.0 mi NE 18.4 mph 29.9 mph N/A   Overcast
1:56 PM 35.6 °F 27.1 °F 35.6 °F 100% 29.10 in 3.0 mi NE 12.7 mph 29.9 mph N/A   Overcast
2:16 PM 35.6 °F 25.5 °F 33.8 °F 93% 29.09 in 3.0 mi NE 17.3 mph 27.6 mph N/A   Overcast
2:36 PM 37.4 °F 27.5 °F 35.6 °F 93% 29.07 in 4.0 mi NE 18.4 mph 28.8 mph N/A   Overcast
2:56 PM 37.4 °F 28.5 °F 35.6 °F 93% 29.06 in 5.0 mi NE 15.0 mph 31.1 mph N/A   Overcast
3:16 PM 37.4 °F 29.3 °F 35.6 °F 93% 29.05 in 6.0 mi NE 12.7 mph 23.0 mph N/A   Overcast
3:36 PM 37.4 °F 28.9 °F 37.4 °F 100% 29.04 in 6.0 mi NE 13.8 mph 25.3 mph N/A   Overcast
3:56 PM 37.4 °F 28.9 °F 35.6 °F 93% 29.04 in 5.0 mi NE 13.8 mph 23.0 mph N/A   Overcast
4:16 PM 37.4 °F 28.9 °F 35.6 °F 93% 29.04 in 4.0 mi NE 13.8 mph 23.0 mph N/A   Overcast
4:36 PM 37.4 °F 29.3 °F 37.4 °F 100% 29.03 in 4.0 mi NE 12.7 mph 24.2 mph N/A   Overcast
4:56 PM 37.4 °F 28.9 °F 37.4 °F 100% 29.01 in 3.0 mi NE 13.8 mph 24.2 mph N/A   Overcast
5:16 PM 37.4 °F 28.9 °F 37.4 °F 100% 29.00 in 3.0 mi NE 13.8 mph 25.3 mph N/A   Overcast
5:36 PM 37.4 °F 29.8 °F 37.4 °F 100% 29.01 in 3.0 mi NE 11.5 mph 23.0 mph N/A   Overcast
5:56 PM 37.4 °F 30.8 °F 35.6 °F 93% 29.00 in 2.5 mi NE 9.2 mph 17.3 mph N/A   Overcast
6:16 PM 37.4 °F 29.8 °F 37.4 °F 100% 28.99 in 2.5 mi NE 11.5 mph 19.6 mph N/A   Overcast
6:36 PM 39.2 °F 33.0 °F 37.4 °F 93% 28.98 in 2.5 mi NE 9.2 mph 19.6 mph N/A   Overcast
6:56 PM 39.2 °F 33.6 °F 37.4 °F 93% 28.98 in 2.5 mi NE 8.1 mph 17.3 mph N/A   Overcast
7:16 PM 39.2 °F 33.6 °F 39.2 °F 100% 28.98 in 2.5 mi NE 8.1 mph - N/A   Overcast
7:36 PM 39.2 °F 34.2 °F 39.2 °F 100% 28.97 in 2.5 mi NE 6.9 mph - N/A   Overcast
7:56 PM 39.2 °F 37.0 °F 39.2 °F 100% 28.96 in 2.5 mi ENE 3.5 mph - N/A   Overcast
8:16 PM 39.2 °F - 37.4 °F 93% 28.97 in 7.0 mi Calm Calm - N/A   Overcast
8:36 PM 39.2 °F 37.0 °F 39.2 °F 100% 28.97 in 2.5 mi SE 3.5 mph - N/A   Overcast
8:56 PM 39.2 °F - 39.2 °F 100% 28.97 in 3.0 mi Calm Calm - N/A   Overcast
9:16 PM 39.2 °F - 39.2 °F 100% 28.97 in 4.0 mi Calm Calm - N/A   Overcast
9:36 PM 39.2 °F - 39.2 °F 100% 28.99 in 2.5 mi Calm Calm - N/A   Overcast
9:56 PM 39.2 °F 35.0 °F 39.2 °F 100% 28.99 in 3.0 mi SE 5.8 mph - N/A   Overcast
10:16 PM 41.0 °F 35.2 °F 41.0 °F 100% 28.99 in 3.0 mi SE 9.2 mph - N/A   Overcast
10:36 PM 41.0 °F 34.3 °F 41.0 °F 100% 29.00 in 5.0 mi SE 11.5 mph 21.9 mph N/A   Overcast
10:56 PM 41.0 °F 33.5 °F 41.0 °F 100% 29.01 in 2.5 mi SE 13.8 mph 20.7 mph N/A   Overcast
11:16 PM 41.0 °F 33.9 °F 41.0 °F 100% 29.01 in 1.8 mi SE 12.7 mph 16.1 mph N/A   Overcast
11:36 PM 41.0 °F 33.5 °F 41.0 °F 100% 29.01 in 1.8 mi SE 13.8 mph 20.7 mph N/A   Overcast
11:56 PM 41.0 °F 33.5 °F 41.0 °F 100% 29.01 in 2.0 mi SE 13.8 mph 21.9 mph N/A   Overcast